CDT,Max TemperatureF,Mean TemperatureF,Min TemperatureF,Max Dew PointF,MeanDew PointF,Min DewpointF,Max Humidity, Mean Humidity, Min Humidity, Max Sea Level PressureIn, Mean Sea Level PressureIn, Min Sea Level PressureIn, Max VisibilityMiles, Mean VisibilityMiles, Min VisibilityMiles, Max Wind SpeedMPH, Mean Wind SpeedMPH, Max Gust SpeedMPH,PrecipitationIn, CloudCover, Events, WindDirDegrees
2011-10-1,59,48,37,40,37,34,93,67,44,30.32,30.27,30.18,10,10,10,17,10,23,0.00,1,,354
2011-10-2,66,50,35,40,36,31,100,73,30,30.30,30.25,30.17,10,7,0,10,3,,0.00,0,Fog,321
2011-10-3,71,56,42,50,43,37,89,66,43,30.24,30.21,30.16,10,10,10,9,3,16,0.00,0,,14
2011-10-4,73,57,41,49,44,38,93,71,38,30.32,30.25,30.22,10,10,8,5,1,,0.00,0,,70
2011-10-5,78,60,44,51,46,41,93,74,35,30.28,30.23,30.18,10,8,1,8,1,,0.00,0,,184
2011-10-6,80,62,46,52,49,43,89,62,37,30.27,30.22,30.19,10,10,7,10,3,,0.00,0,,139
2011-10-7,82,66,51,56,52,47,89,59,36,30.31,30.24,30.20,10,10,8,16,6,22,0.00,0,,154
2011-10-8,81,66,51,57,52,48,88,67,38,30.32,30.28,30.24,10,9,2,14,6,22,0.00,0,,161
2011-10-9,79,64,48,53,48,43,83,62,31,30.37,30.29,30.23,10,10,7,9,3,,0.00,0,,105
2011-10-10,75,62,50,53,49,45,83,65,40,30.22,30.13,30.04,10,9,7,12,3,17,0.00,0,,147
2011-10-11,77,64,54,56,53,49,86,68,48,30.04,29.97,29.90,10,10,7,9,3,,0.00,2,,135
2011-10-12,75,64,53,55,50,47,83,60,40,29.89,29.78,29.63,10,10,10,14,5,21,0.00,4,,143
2011-10-13,64,58,51,58,56,44,94,87,65,29.62,29.55,29.48,10,6,1,16,7,21,0.40,7,Rain,228
2011-10-14,61,52,46,43,40,36,83,63,44,29.70,29.62,29.54,10,10,10,23,13,32,0.00,2,,259
2011-10-15,60,52,45,39,36,32,74,54,35,29.89,29.82,29.71,10,10,10,22,14,30,0.00,1,,249
2011-10-16,60,52,45,46,39,31,89,65,41,29.88,29.82,29.78,10,10,6,15,5,22,0.13,2,Rain,255
2011-10-17,57,48,39,34,32,29,73,57,36,29.90,29.86,29.81,10,10,10,17,10,26,0.00,0,,238
2011-10-18,53,44,36,41,35,32,86,70,56,29.86,29.83,29.81,10,10,10,14,5,,0.00,3,,355
2011-10-19,46,44,42,41,39,36,87,81,66,29.80,29.69,29.57,10,7,2,26,17,34,0.14,8,Rain,342
2011-10-20,46,44,41,36,34,33,79,69,59,29.90,29.67,29.54,10,10,8,26,19,34,0.03,7,Rain,304
2011-10-21,54,44,33,34,31,28,85,64,40,30.09,30.05,29.93,10,10,10,12,5,16,0.00,0,,276
2011-10-22,64,48,32,42,35,29,88,68,40,30.08,30.04,29.98,10,10,9,8,2,,0.00,0,,189
2011-10-23,66,51,36,48,40,33,93,67,37,30.01,29.93,29.83,10,8,2,17,4,34,0.00,2,Rain-Thunderstorm,204
2011-10-24,62,52,42,49,39,32,89,67,34,30.12,30.03,29.86,10,10,5,13,7,,0.03,1,Rain,247
2011-10-25,73,60,46,52,45,35,81,62,33,30.10,29.87,29.73,10,9,6,20,9,29,0.09,5,Rain-Thunderstorm,161
2011-10-26,53,50,46,50,42,37,90,79,71,29.98,29.90,29.75,10,9,5,16,11,24,0.00,8,,351
2011-10-27,52,44,36,37,34,31,86,68,46,30.16,30.04,29.95,10,10,10,13,7,18,0.00,5,Rain,322
2011-10-28,55,44,33,36,31,25,92,68,33,30.20,30.12,30.04,10,8,3,9,3,,0.00,3,,185
2011-10-29,54,42,32,33,28,23,88,65,33,30.13,30.07,30.01,10,10,7,13,3,18,0.00,1,,264
2011-10-30,55,42,30,42,34,25,89,69,44,30.12,30.02,29.94,10,9,4,25,9,34,0.14,5,Rain,164
2011-10-31,51,42,33,37,35,30,97,83,57,30.15,30.02,29.95,10,6,0,9,1,,0.00,2,Fog,245